CORVUS BC1 (42847 NORAD) Tracking and Keplerian Element Data

This shows tracking and keplerian element data for the satellite.

Feedback or suggestion? Click here.




ElementValue
Catalog42847
NameCORVUS BC1
Epoch Orbit41220
Epoch Day35.02193819
Epoch Year2025
RAAN214.2517
Inclination97.3715
Eccentricity0.0012617
Argument of Perigee345.9086
Mean Anonmoly14.1785
Mean Motion15.01537309
Decay Rate6.618E-05
L11 42847U 17042Y 25035.02193819 .00006618 00000+0 51458-3 0 9993
L22 42847 97.3715 214.2517 0012617 345.9086 14.1785 15.01537309412202



Live tracking and technical data element details for CORVUS BC1 (NORAD 42847). CORVUS BC1 can be tracked NOW for your location showing map with azimuth and elevation plus other details from your city location.







IsCatalogInMostPopularTable: catalog: 42847, numindb: 316
Update: records affected: 1



GetName: 42847 CORVUS BC1

Hit Count: updated at: Fri, 16 May 2025 11:37:00 GMT